BE2CW EGHI-EGFF

Flight info

Callsign BE2CW
Flight time N/A
Altitude 14000
Route PEPIS Y321 NUBRI N14 HEKXA Q63 SAWPE
Aircraft DH8D/M-SDE2E3FGRY/H

Departure

Time 2026-05-01 15:27
Airport Southampton Airport (EGHI)

Arrival

Time N/A
Airport Cardiff International Airport (EGFF)
Time Latitude Longitude Altitude Speed Heading
2026-05-01 14:20 50.95041 -1.36008 53 ft 0 kts 290°
2026-05-01 15:09 50.95040 -1.36002 53 ft 2 kts 290°
2026-05-01 15:09 50.95035 -1.35980 53 ft 2 kts 290°
2026-05-01 15:09 50.95029 -1.35959 53 ft 2 kts 311°
2026-05-01 15:10 50.95018 -1.35947 53 ft 2 kts 348°
2026-05-01 15:10 50.95002 -1.35949 53 ft 0 kts 20°
2026-05-01 15:20 50.95005 -1.35948 52 ft 4 kts 20°
2026-05-01 15:20 50.95045 -1.35913 52 ft 7 kts 51°
2026-05-01 15:21 50.95047 -1.35852 52 ft 0 kts 105°
2026-05-01 15:21 50.95047 -1.35850 52 ft 0 kts 105°
2026-05-01 15:21 50.95043 -1.35830 53 ft 2 kts 105°
2026-05-01 15:21 50.95034 -1.35781 53 ft 7 kts 108°
2026-05-01 15:22 50.94899 -1.35749 53 ft 13 kts 200°
2026-05-01 15:22 50.94811 -1.35802 53 ft 13 kts 200°
2026-05-01 15:22 50.94719 -1.35856 53 ft 14 kts 201°
2026-05-01 15:23 50.94628 -1.35912 53 ft 14 kts 199°
2026-05-01 15:23 50.94522 -1.35969 53 ft 16 kts 199°
2026-05-01 15:23 50.94431 -1.36021 53 ft 11 kts 206°
2026-05-01 15:23 50.94418 -1.36017 53 ft 3 kts 15°
2026-05-01 15:24 50.94513 -1.35966 53 ft 27 kts 20°
2026-05-01 15:24 50.94770 -1.35820 53 ft 50 kts 20°
2026-05-01 15:24 50.95149 -1.35612 53 ft 64 kts 19°
2026-05-01 15:24 50.95562 -1.35387 53 ft 29 kts 19°
2026-05-01 15:25 50.95713 -1.35303 53 ft 21 kts 20°
2026-05-01 15:25 50.95838 -1.35258 53 ft 5 kts 357°
2026-05-01 15:25 50.95866 -1.35259 53 ft 7 kts 15°
2026-05-01 15:25 50.95851 -1.35215 53 ft 10 kts 193°
2026-05-01 15:26 50.95733 -1.35281 53 ft 0 kts 201°
2026-05-01 15:26 50.95620 -1.35349 53 ft 61 kts 199°
2026-05-01 15:27 50.94944 -1.35735 63 ft 136 kts 202°
2026-05-01 15:27 50.94015 -1.36402 477 ft 156 kts 207°
2026-05-01 15:27 50.93041 -1.37202 1067 ft 167 kts 211°
2026-05-01 15:28 50.92518 -1.40436 2276 ft 181 kts 299°
2026-05-01 15:28 50.93436 -1.41742 2942 ft 189 kts 334°
2026-05-01 15:28 50.94774 -1.42019 3463 ft 202 kts
2026-05-01 15:29 50.97352 -1.40094 4216 ft 241 kts 18°
2026-05-01 15:29 50.99106 -1.39762 4171 ft 271 kts 355°
2026-05-01 15:29 51.02893 -1.39055 4252 ft 270 kts 17°
2026-05-01 15:30 51.06435 -1.37347 4848 ft 265 kts 17°
2026-05-01 15:31 51.13409 -1.34002 6097 ft 260 kts 17°
2026-05-01 15:31 51.16873 -1.32346 6661 ft 262 kts 17°
2026-05-01 15:32 51.20365 -1.30680 7196 ft 264 kts 17°
2026-05-01 15:32 51.23903 -1.29010 7722 ft 266 kts 17°
2026-05-01 15:33 51.29242 -1.26518 8514 ft 270 kts 17°
2026-05-01 15:34 51.34696 -1.23979 9295 ft 274 kts 17°